Location: Brabourne
(51.1333°N, 1.0000°E)
Time: 11:17:58
(UTC+00:00)

ADEOS Rocket - Pass Details

Date: 24 October 2021
Orbit: 858 x 1307 km, 98.8° (Epoch: 26 November)

Event Time Altitude Azimuth Distance (km) Brightness Sun altitude
Exits shadow 00:00:14 20° 6° (N) 2,484 5.4 -50.4°
Drops below altitude 10° 00:02:19 10° 356° (N) 3,110 6.1 -50.4°
Sets 00:05:01 0° 349° (NNW) 4,015 6.8 -50.3°
